TimeEST,TemperatureF,Dew PointF,Humidity,Sea Level PressureIn,VisibilityMPH,Wind Direction,Wind SpeedMPH,Gust SpeedMPH,PrecipitationIn,Events,Conditions,WindDirDegrees,DateUTC
12:15 AM,32.5,27.9,83,30.26,5.0,Calm,Calm,-,N/A,,Haze,0,2013-01-04 05:15:00
12:35 AM,32.5,27.9,83,30.25,5.0,Calm,Calm,-,N/A,,Haze,0,2013-01-04 05:35:00
12:55 AM,32.5,27.9,83,30.25,5.0,Calm,Calm,-,N/A,,Haze,0,2013-01-04 05:55:00
1:15 AM,32.5,27.9,83,30.26,4.0,Calm,Calm,-,N/A,,Haze,0,2013-01-04 06:15:00
1:35 AM,30.2,25.3,82,30.25,10.0,Calm,Calm,-,N/A,,Clear,0,2013-01-04 06:35:00
1:55 AM,30.4,25.3,82,30.26,5.0,Calm,Calm,-,N/A,,Haze,0,2013-01-04 06:55:00
2:15 AM,30.2,25.3,82,30.26,4.0,Calm,Calm,-,N/A,,Haze,0,2013-01-04 07:15:00
2:35 AM,30.2,25.3,82,30.26,5.0,Calm,Calm,-,N/A,,Haze,0,2013-01-04 07:35:00
2:55 AM,30.2,25.3,82,30.26,2.5,Calm,Calm,-,N/A,,Haze,0,2013-01-04 07:55:00
3:35 AM,30.2,25.3,82,30.27,5.0,Calm,Calm,-,N/A,,Haze,0,2013-01-04 08:35:00
4:15 AM,29.7,24.8,82,30.27,7.0,Calm,Calm,-,N/A,,Clear,0,2013-01-04 09:15:00
7:15 AM,27.5,22.6,82,30.29,2.0,Calm,Calm,-,N/A,,Clear,0,2013-01-04 12:15:00
7:35 AM,30.2,25.3,82,30.29,2.0,Calm,Calm,-,N/A,,Haze,0,2013-01-04 12:35:00
8:15 AM,30.2,25.3,82,30.29,4.0,Calm,Calm,-,N/A,,Haze,0,2013-01-04 13:15:00
8:35 AM,32.5,27.9,83,30.29,5.0,Calm,Calm,-,N/A,,Haze,0,2013-01-04 13:35:00
8:55 AM,33.8,29.1,83,30.30,10.0,Calm,Calm,-,N/A,,Clear,0,2013-01-04 13:55:00
9:15 AM,37.4,32.0,81,30.30,10.0,West,4.6,-,N/A,,Clear,260,2013-01-04 14:15:00
9:35 AM,37.6,31.3,78,30.31,10.0,WNW,3.5,-,N/A,,Clear,290,2013-01-04 14:35:00
9:55 AM,38.5,30.4,73,30.31,10.0,NW,3.5,-,N/A,,Clear,310,2013-01-04 14:55:00
10:15 AM,40.1,30.4,68,30.31,10.0,NW,4.6,-,N/A,,Clear,320,2013-01-04 15:15:00
10:35 AM,41.2,29.3,63,30.31,10.0,NW,6.9,-,N/A,,Clear,310,2013-01-04 15:35:00
10:55 AM,42.8,28.9,58,30.30,10.0,West,5.8,-,N/A,,Clear,280,2013-01-04 15:55:00
11:15 AM,42.8,27.3,54,30.29,10.0,West,5.8,-,N/A,,Clear,270,2013-01-04 16:15:00
11:35 AM,43.9,25.0,47,30.28,10.0,WNW,5.8,-,N/A,,Clear,290,2013-01-04 16:35:00
11:55 AM,44.2,24.4,46,30.27,10.0,West,8.1,-,N/A,,Clear,270,2013-01-04 16:55:00
12:15 PM,45.1,23.2,42,30.26,10.0,West,11.5,-,N/A,,Clear,260,2013-01-04 17:15:00
12:35 PM,45.7,21.2,38,30.24,10.0,West,8.1,-,N/A,,Clear,280,2013-01-04 17:35:00
12:55 PM,46.0,18.7,34,30.23,10.0,West,8.1,-,N/A,,Clear,280,2013-01-04 17:55:00
1:15 PM,47.3,18.9,32,30.21,10.0,WSW,9.2,-,N/A,,Clear,250,2013-01-04 18:15:00
1:35 PM,49.8,19.6,30,30.21,10.0,West,8.1,-,N/A,,Clear,260,2013-01-04 18:35:00
1:55 PM,50.2,18.5,29,30.19,10.0,West,9.2,-,N/A,,Clear,260,2013-01-04 18:55:00
2:15 PM,50.2,16.2,26,30.19,10.0,WSW,8.1,-,N/A,,Clear,250,2013-01-04 19:15:00
2:35 PM,52.5,18.1,26,30.19,10.0,West,9.2,-,N/A,,Clear,260,2013-01-04 19:35:00
2:55 PM,50.9,19.8,29,30.19,10.0,WSW,11.5,-,N/A,,Clear,250,2013-01-04 19:55:00
3:15 PM,50.9,21.0,31,30.19,10.0,West,11.5,-,N/A,,Clear,260,2013-01-04 20:15:00
3:35 PM,50.2,19.6,30,30.19,10.0,WSW,9.2,16.1,N/A,,Clear,250,2013-01-04 20:35:00
3:55 PM,50.2,21.6,33,30.19,10.0,WSW,11.5,-,N/A,,Clear,240,2013-01-04 20:55:00
4:15 PM,50.2,20.3,31,30.20,10.0,WSW,8.1,-,N/A,,Clear,250,2013-01-04 21:15:00
4:35 PM,48.4,19.6,32,30.19,10.0,WSW,8.1,-,N/A,,Clear,250,2013-01-04 21:35:00
4:55 PM,46.6,19.6,34,30.19,10.0,WSW,6.9,-,N/A,,Clear,240,2013-01-04 21:55:00
5:15 PM,45.3,21.4,39,30.19,10.0,West,3.5,-,N/A,,Clear,260,2013-01-04 22:15:00
5:35 PM,44.1,24.6,46,30.20,10.0,Calm,Calm,-,N/A,,Clear,0,2013-01-04 22:35:00
5:55 PM,43.0,24.8,49,30.21,10.0,Calm,Calm,-,N/A,,Clear,0,2013-01-04 22:55:00
6:35 PM,40.1,28.4,63,30.22,10.0,Calm,Calm,-,N/A,,Scattered Clouds,0,2013-01-04 23:35:00
6:55 PM,40.1,28.6,63,30.22,10.0,Calm,Calm,-,N/A,,Mostly Cloudy,0,2013-01-04 23:55:00
7:15 PM,40.1,28.9,64,30.22,10.0,Calm,Calm,-,N/A,,Overcast,0,2013-01-05 00:15:00
7:35 PM,41.4,28.6,60,30.23,10.0,Calm,Calm,-,N/A,,Overcast,0,2013-01-05 00:35:00
7:55 PM,40.1,31.8,72,30.24,10.0,Calm,Calm,-,N/A,,Overcast,0,2013-01-05 00:55:00
8:15 PM,42.8,30.7,62,30.24,10.0,Calm,Calm,-,N/A,,Overcast,0,2013-01-05 01:15:00
8:35 PM,42.8,28.6,57,30.25,10.0,Calm,Calm,-,N/A,,Overcast,0,2013-01-05 01:35:00
8:55 PM,43.3,27.9,54,30.25,10.0,Calm,Calm,-,N/A,,Overcast,0,2013-01-05 01:55:00
9:15 PM,42.8,28.8,58,30.25,10.0,WSW,3.5,-,N/A,,Mostly Cloudy,240,2013-01-05 02:15:00
9:35 PM,42.8,31.1,63,30.26,10.0,Calm,Calm,-,N/A,,Scattered Clouds,0,2013-01-05 02:35:00
9:55 PM,42.8,30.9,63,30.26,10.0,SW,3.5,-,N/A,,Mostly Cloudy,230,2013-01-05 02:55:00
10:15 PM,40.1,29.5,66,30.26,10.0,WSW,4.6,-,N/A,,Scattered Clouds,250,2013-01-05 03:15:00
10:35 PM,41.5,29.5,62,30.27,10.0,Calm,Calm,-,N/A,,Clear,0,2013-01-05 03:35:00
10:55 PM,40.5,27.5,60,30.27,10.0,Calm,Calm,-,N/A,,Clear,0,2013-01-05 03:55:00
11:15 PM,42.8,25.7,51,30.26,10.0,WNW,4.6,-,N/A,,Clear,290,2013-01-05 04:15:00
11:35 PM,40.5,22.1,48,30.26,10.0,NW,3.5,-,N/A,,Clear,310,2013-01-05 04:35:00
11:55 PM,40.1,22.3,49,30.27,10.0,West,3.5,-,N/A,,Clear,280,2013-01-05 04:55:00